Location: Poughquag
(41.6090°N, 73.6820°W)
Time: 03:40:11
(UTC-04:00)

Transit 2A - Pass Details

Date: 01 June 2020
Orbit: 592 x 967 km, 66.7° (Epoch: 06 July)

Event Time Altitude Azimuth Distance (km) Brightness Sun altitude
Rises 15:51:05 0° 272° (W) 3,141 9.8 48.1°
Reaches altitude 10° 15:54:51 10° 301° (WNW) 2,316 9.1 47.4°
Maximum altitude 15:57:09 13° 327° (NNW) 2,186 8.7 47.0°
Drops below altitude 10° 15:59:34 10° 353° (N) 2,432 8.7 46.5°
Sets 16:03:46 0° 21° (NNE) 3,465 9.2 45.7°
